Time,TemperatureF,DewpointF,PressureIn,WindDirection,WindDirectionDegrees,WindSpeedMPH,WindSpeedGustMPH,Humidity,HourlyPrecipIn,Conditions,Clouds,dailyrainin,SolarRadiationWatts/m^2,SoftwareType,DateUTC
2013-03-17 00:00:00,66.7,66.4,30.01,West,261,1.0,2.0,99,0.00,,,0.00,0,Wunderground v.1.15,2013-03-17 10:00:00,
2013-03-17 00:10:00,66.6,66.3,30.01,West,261,2.0,2.0,99,0.00,,,0.00,0,Wunderground v.1.15,2013-03-17 10:10:00,
2013-03-17 00:15:00,66.6,66.3,30.01,West,261,2.0,2.0,99,0.00,,,0.00,0,Wunderground v.1.15,2013-03-17 10:15:00,
2013-03-17 00:20:00,66.6,66.3,30.01,West,261,1.0,1.0,99,0.00,,,0.00,0,Wunderground v.1.15,2013-03-17 10:20:00,
2013-03-17 00:25:00,66.7,66.4,30.02,West,261,0.0,3.0,99,0.00,,,0.00,0,Wunderground v.1.15,2013-03-17 10:25:00,
2013-03-17 00:30:00,66.7,66.4,30.02,West,261,2.0,2.0,99,0.00,,,0.00,0,Wunderground v.1.15,2013-03-17 10:30:00,
2013-03-17 00:35:00,66.8,66.5,30.01,West,261,2.0,2.0,99,0.00,,,0.00,0,Wunderground v.1.15,2013-03-17 10:35:00,
2013-03-17 00:40:00,66.8,66.5,30.01,West,261,2.0,3.0,99,0.00,,,0.00,0,Wunderground v.1.15,2013-03-17 10:40:00,
2013-03-17 00:45:00,66.8,66.5,30.01,West,261,1.0,3.0,99,0.00,,,0.00,0,Wunderground v.1.15,2013-03-17 10:45:00,
2013-03-17 00:55:00,66.7,66.1,30.02,West,261,1.0,3.0,98,0.00,,,0.00,0,Wunderground v.1.15,2013-03-17 10:55:00,
2013-03-17 01:00:00,66.7,66.1,30.02,West,261,2.0,2.0,98,0.00,,,0.00,0,Wunderground v.1.15,2013-03-17 11:00:00,
2013-03-17 01:10:00,66.7,66.1,30.01,West,261,2.0,4.0,98,0.00,,,0.00,0,Wunderground v.1.15,2013-03-17 11:10:00,
2013-03-17 01:15:00,66.7,66.1,30.01,West,260,2.0,4.0,98,0.00,,,0.00,0,Wunderground v.1.15,2013-03-17 11:15:00,
2013-03-17 01:20:00,66.8,66.2,30.01,West,260,2.0,2.0,98,0.00,,,0.00,0,Wunderground v.1.15,2013-03-17 11:20:00,
2013-03-17 01:25:00,66.8,66.2,30.00,West,260,2.0,2.0,98,0.00,,,0.00,0,Wunderground v.1.15,2013-03-17 11:25:00,
2013-03-17 01:30:00,66.8,65.9,30.00,West,260,2.0,2.0,97,0.00,,,0.00,0,Wunderground v.1.15,2013-03-17 11:30:00,
2013-03-17 01:35:00,66.7,65.8,30.00,West,260,2.0,3.0,97,0.00,,,0.00,0,Wunderground v.1.15,2013-03-17 11:35:00,
2013-03-17 01:40:00,66.6,66.0,30.00,West,260,1.0,1.0,98,0.00,,,0.00,0,Wunderground v.1.15,2013-03-17 11:40:00,
2013-03-17 01:45:00,66.5,65.9,30.00,West,260,2.0,2.0,98,0.00,,,0.00,0,Wunderground v.1.15,2013-03-17 11:45:00,
2013-03-17 01:55:00,66.4,65.8,30.00,West,260,2.0,2.0,98,0.00,,,0.00,0,Wunderground v.1.15,2013-03-17 11:55:00,
2013-03-17 02:00:00,66.3,65.7,29.99,West,260,1.0,1.0,98,0.00,,,0.00,0,Wunderground v.1.15,2013-03-17 12:00:00,
2013-03-17 02:10:00,66.2,65.9,29.99,West,260,0.0,0.0,99,0.00,,,0.00,0,Wunderground v.1.15,2013-03-17 12:10:00,
2013-03-17 02:15:00,66.2,65.9,29.99,West,261,0.0,0.0,99,0.00,,,0.00,0,Wunderground v.1.15,2013-03-17 12:15:00,
2013-03-17 02:20:00,66.2,65.9,30.00,West,261,1.0,4.0,99,0.00,,,0.00,0,Wunderground v.1.15,2013-03-17 12:20:00,
2013-03-17 02:25:00,66.2,65.9,30.00,West,261,3.0,4.0,99,0.00,,,0.00,0,Wunderground v.1.15,2013-03-17 12:25:00,
2013-03-17 02:30:00,66.2,65.9,29.99,West,261,3.0,3.0,99,0.00,,,0.01,0,Wunderground v.1.15,2013-03-17 12:30:00,
2013-03-17 02:35:00,66.2,65.9,29.99,West,261,2.0,4.0,99,0.00,,,0.01,0,Wunderground v.1.15,2013-03-17 12:35:00,
2013-03-17 02:45:00,66.1,65.8,29.99,West,261,2.0,2.0,99,0.00,,,0.01,0,Wunderground v.1.15,2013-03-17 12:45:00,
2013-03-17 02:50:00,66.1,65.8,29.97,West,261,2.0,2.0,99,0.00,,,0.01,0,Wunderground v.1.15,2013-03-17 12:50:00,
2013-03-17 02:55:00,66.1,65.8,29.97,West,261,1.0,2.0,99,0.00,,,0.01,0,Wunderground v.1.15,2013-03-17 12:55:00,
2013-03-17 03:00:00,66.0,65.7,29.97,West,261,0.0,0.0,99,0.00,,,0.01,0,Wunderground v.1.15,2013-03-17 13:00:00,
2013-03-17 03:10:00,66.0,65.7,29.98,West,261,1.0,1.0,99,0.00,,,0.01,0,Wunderground v.1.15,2013-03-17 13:10:00,
2013-03-17 03:15:00,66.0,65.7,29.98,West,261,2.0,4.0,99,0.00,,,0.01,0,Wunderground v.1.15,2013-03-17 13:15:00,
2013-03-17 03:20:00,66.0,65.7,29.98,West,261,3.0,3.0,99,0.00,,,0.01,0,Wunderground v.1.15,2013-03-17 13:20:00,
2013-03-17 03:25:00,66.0,65.7,29.98,West,261,3.0,3.0,99,0.00,,,0.01,0,Wunderground v.1.15,2013-03-17 13:25:00,
2013-03-17 03:30:00,66.0,65.7,29.98,West,261,3.0,3.0,99,0.00,,,0.01,0,Wunderground v.1.15,2013-03-17 13:30:00,
2013-03-17 03:35:00,66.0,65.7,29.98,West,261,2.0,3.0,99,0.00,,,0.01,0,Wunderground v.1.15,2013-03-17 13:35:00,
2013-03-17 03:40:00,66.1,65.8,29.98,West,261,2.0,2.0,99,0.00,,,0.01,0,Wunderground v.1.15,2013-03-17 13:40:00,
2013-03-17 03:45:00,66.1,65.8,29.97,West,261,2.0,2.0,99,0.00,,,0.01,0,Wunderground v.1.15,2013-03-17 13:45:00,
2013-03-17 03:50:00,66.1,65.8,29.98,West,261,1.0,3.0,99,0.00,,,0.01,0,Wunderground v.1.15,2013-03-17 13:50:00,
2013-03-17 03:55:00,66.1,65.5,29.97,West,261,1.0,3.0,98,0.00,,,0.01,0,Wunderground v.1.15,2013-03-17 13:55:00,
2013-03-17 04:00:00,66.2,65.6,29.98,West,260,1.0,3.0,98,0.00,,,0.01,0,Wunderground v.1.15,2013-03-17 14:00:00,
2013-03-17 04:10:00,66.3,65.7,29.98,West,260,1.0,1.0,98,0.00,,,0.01,0,Wunderground v.1.15,2013-03-17 14:10:00,
2013-03-17 04:15:00,66.3,65.7,29.98,West,260,0.0,1.0,98,0.00,,,0.01,0,Wunderground v.1.15,2013-03-17 14:15:00,
2013-03-17 04:20:00,66.3,65.7,29.98,West,260,0.0,0.0,98,0.00,,,0.01,0,Wunderground v.1.15,2013-03-17 14:20:00,
2013-03-17 04:25:00,66.3,65.7,29.98,West,260,0.0,0.0,98,0.00,,,0.01,0,Wunderground v.1.15,2013-03-17 14:25:00,
2013-03-17 04:35:00,66.3,65.4,29.98,West,262,2.0,7.0,97,0.00,,,0.01,0,Wunderground v.1.15,2013-03-17 14:35:00,
2013-03-17 04:40:00,66.3,65.4,29.98,West,261,3.0,3.0,97,0.00,,,0.01,0,Wunderground v.1.15,2013-03-17 14:40:00,
2013-03-17 04:45:00,66.4,65.5,29.98,West,261,3.0,3.0,97,0.00,,,0.01,0,Wunderground v.1.15,2013-03-17 14:45:00,
2013-03-17 04:50:00,66.4,65.5,29.98,West,261,1.0,1.0,97,0.00,,,0.01,0,Wunderground v.1.15,2013-03-17 14:50:00,
2013-03-17 04:55:00,66.4,65.5,29.99,West,261,0.0,1.0,97,0.00,,,0.01,0,Wunderground v.1.15,2013-03-17 14:55:00,
2013-03-17 05:00:00,66.4,65.5,29.98,West,261,0.0,0.0,97,0.00,,,0.01,0,Wunderground v.1.15,2013-03-17 15:00:00,
2013-03-17 05:10:00,66.4,65.5,29.98,West,263,2.0,2.0,97,0.00,,,0.01,0,Wunderground v.1.15,2013-03-17 15:10:00,
2013-03-17 05:15:00,66.4,65.5,29.98,West,263,1.0,2.0,97,0.00,,,0.01,0,Wunderground v.1.15,2013-03-17 15:15:00,
2013-03-17 05:20:00,66.4,65.5,29.98,West,263,0.0,1.0,97,0.00,,,0.01,0,Wunderground v.1.15,2013-03-17 15:20:00,
2013-03-17 05:25:00,66.4,65.5,29.98,West,263,1.0,1.0,97,0.00,,,0.01,0,Wunderground v.1.15,2013-03-17 15:25:00,
2013-03-17 05:30:00,66.4,65.5,29.98,West,263,1.0,1.0,97,0.00,,,0.01,0,Wunderground v.1.15,2013-03-17 15:30:00,
2013-03-17 05:35:00,66.3,65.4,29.98,West,263,1.0,2.0,97,0.00,,,0.01,0,Wunderground v.1.15,2013-03-17 15:35:00,
2013-03-17 05:45:00,66.2,65.6,29.99,West,263,1.0,1.0,98,0.00,,,0.01,0,Wunderground v.1.15,2013-03-17 15:45:00,
2013-03-17 05:50:00,66.2,65.6,30.00,West,263,0.0,0.0,98,0.00,,,0.01,0,Wunderground v.1.15,2013-03-17 15:50:00,
2013-03-17 06:00:00,66.2,65.6,30.00,West,263,1.0,2.0,98,0.00,,,0.01,0,Wunderground v.1.15,2013-03-17 16:00:00,
2013-03-17 06:10:00,66.2,65.6,29.99,West,263,2.0,2.0,98,0.00,,,0.01,0,Wunderground v.1.15,2013-03-17 16:10:00,
2013-03-17 06:15:00,66.2,65.6,29.99,West,263,1.0,2.0,98,0.00,,,0.01,0,Wunderground v.1.15,2013-03-17 16:15:00,
2013-03-17 06:20:00,66.2,65.6,29.99,West,263,0.0,0.0,98,0.00,,,0.01,0,Wunderground v.1.15,2013-03-17 16:20:00,
2013-03-17 06:30:00,65.8,64.9,30.00,West,272,3.0,3.0,97,0.00,,,0.01,0,Wunderground v.1.15,2013-03-17 16:30:00,
2013-03-17 06:35:00,65.8,64.9,30.00,West,272,2.0,3.0,97,0.00,,,0.01,0,Wunderground v.1.15,2013-03-17 16:35:00,
2013-03-17 06:40:00,65.8,64.9,30.01,West,272,2.0,2.0,97,0.00,,,0.01,5,Wunderground v.1.15,2013-03-17 16:40:00,
2013-03-17 06:45:00,65.8,64.6,30.01,West,271,2.0,2.0,96,0.00,,,0.01,5,Wunderground v.1.15,2013-03-17 16:45:00,
2013-03-17 06:50:00,65.8,64.6,30.01,West,271,3.0,3.0,96,0.00,,,0.01,7,Wunderground v.1.15,2013-03-17 16:50:00,
2013-03-17 07:00:00,65.8,64.9,30.02,West,271,1.0,4.0,97,0.00,,,0.01,7,Wunderground v.1.15,2013-03-17 17:00:00,
2013-03-17 07:10:00,65.8,64.9,30.01,West,271,1.0,2.0,97,0.00,,,0.01,7,Wunderground v.1.15,2013-03-17 17:10:00,
2013-03-17 07:15:00,65.8,64.9,30.02,West,271,1.0,2.0,97,0.00,,,0.01,11,Wunderground v.1.15,2013-03-17 17:15:00,
2013-03-17 07:20:00,65.8,64.9,30.02,West,271,1.0,2.0,97,0.00,,,0.01,11,Wunderground v.1.15,2013-03-17 17:20:00,
2013-03-17 07:30:00,65.9,65.0,30.03,West,271,3.0,3.0,97,0.00,,,0.01,14,Wunderground v.1.15,2013-03-17 17:30:00,
2013-03-17 07:35:00,65.9,65.0,30.03,West,271,3.0,3.0,97,0.00,,,0.01,35,Wunderground v.1.15,2013-03-17 17:35:00,
2013-03-17 07:40:00,66.0,65.1,30.03,West,271,2.0,2.0,97,0.00,,,0.01,23,Wunderground v.1.15,2013-03-17 17:40:00,
2013-03-17 07:45:00,66.0,65.1,30.03,West,271,1.0,2.0,97,0.00,,,0.01,16,Wunderground v.1.15,2013-03-17 17:45:00,
2013-03-17 07:50:00,66.1,65.2,30.02,West,271,1.0,2.0,97,0.00,,,0.01,28,Wunderground v.1.15,2013-03-17 17:50:00,
2013-03-17 07:55:00,66.0,65.1,30.03,West,271,1.0,2.0,97,0.00,,,0.01,25,Wunderground v.1.15,2013-03-17 17:55:00,
2013-03-17 08:00:00,66.1,65.2,30.03,West,271,0.0,0.0,97,0.00,,,0.01,26,Wunderground v.1.15,2013-03-17 18:00:00,
2013-03-17 08:10:00,66.1,65.2,30.03,West,271,0.0,0.0,97,0.00,,,0.01,28,Wunderground v.1.15,2013-03-17 18:10:00,
2013-03-17 08:15:00,66.1,65.2,30.03,West,271,0.0,0.0,97,0.00,,,0.01,26,Wunderground v.1.15,2013-03-17 18:15:00,
2013-03-17 08:20:00,66.1,65.2,30.03,West,271,1.0,1.0,97,0.00,,,0.01,19,Wunderground v.1.15,2013-03-17 18:20:00,
2013-03-17 08:25:00,66.2,65.3,30.03,West,271,1.0,1.0,97,0.00,,,0.01,28,Wunderground v.1.15,2013-03-17 18:25:00,
2013-03-17 08:35:00,66.3,65.4,30.03,West,271,0.0,0.0,97,0.00,,,0.01,39,Wunderground v.1.15,2013-03-17 18:35:00,
2013-03-17 08:40:00,66.4,65.5,30.03,West,271,0.0,0.0,97,0.00,,,0.01,47,Wunderground v.1.15,2013-03-17 18:40:00,
2013-03-17 08:45:00,66.4,65.5,30.03,West,271,0.0,0.0,97,0.00,,,0.01,74,Wunderground v.1.15,2013-03-17 18:45:00,
2013-03-17 08:50:00,66.5,65.6,30.03,West,271,0.0,2.0,97,0.00,,,0.01,58,Wunderground v.1.15,2013-03-17 18:50:00,
2013-03-17 08:55:00,66.6,66.0,30.04,West,271,1.0,2.0,98,0.00,,,0.01,65,Wunderground v.1.15,2013-03-17 18:55:00,
2013-03-17 09:00:00,66.7,65.8,30.04,West,271,1.0,2.0,97,0.00,,,0.01,76,Wunderground v.1.15,2013-03-17 19:00:00,
2013-03-17 09:10:00,66.8,65.9,30.04,West,271,2.0,2.0,97,0.00,,,0.01,44,Wunderground v.1.15,2013-03-17 19:10:00,
2013-03-17 09:15:00,66.9,66.0,30.04,West,271,2.0,4.0,97,0.00,,,0.01,51,Wunderground v.1.15,2013-03-17 19:15:00,
2013-03-17 09:25:00,66.9,66.0,30.05,West,271,0.0,2.0,97,0.00,,,0.01,102,Wunderground v.1.15,2013-03-17 19:25:00,
2013-03-17 09:30:00,67.0,66.4,30.04,West,271,0.0,0.0,98,0.00,,,0.01,83,Wunderground v.1.15,2013-03-17 19:30:00,
2013-03-17 09:35:00,67.1,66.5,30.04,West,271,0.0,0.0,98,0.00,,,0.01,76,Wunderground v.1.15,2013-03-17 19:35:00,
2013-03-17 09:40:00,67.2,66.6,30.05,West,271,0.0,0.0,98,0.00,,,0.01,62,Wunderground v.1.15,2013-03-17 19:40:00,
2013-03-17 09:45:00,67.2,66.6,30.05,West,271,0.0,0.0,98,0.00,,,0.01,49,Wunderground v.1.15,2013-03-17 19:45:00,
2013-03-17 09:50:00,67.2,66.3,30.05,West,271,0.0,0.0,97,0.00,,,0.01,70,Wunderground v.1.15,2013-03-17 19:50:00,
2013-03-17 09:55:00,67.2,66.3,30.05,West,271,0.0,0.0,97,0.00,,,0.01,109,Wunderground v.1.15,2013-03-17 19:55:00,
2013-03-17 10:00:00,67.3,66.4,30.05,West,271,0.0,1.0,97,0.00,,,0.01,156,Wunderground v.1.15,2013-03-17 20:00:00,
2013-03-17 10:10:00,67.5,66.6,30.05,West,271,2.0,2.0,97,0.00,,,0.01,86,Wunderground v.1.15,2013-03-17 20:10:00,
2013-03-17 10:15:00,67.5,66.6,30.05,West,271,2.0,2.0,97,0.00,,,0.01,121,Wunderground v.1.15,2013-03-17 20:15:00,
2013-03-17 10:20:00,67.6,66.7,30.05,West,271,2.0,2.0,97,0.00,,,0.01,176,Wunderground v.1.15,2013-03-17 20:20:00,
2013-03-17 10:25:00,67.8,66.9,30.05,West,271,1.0,2.0,97,0.00,,,0.01,178,Wunderground v.1.15,2013-03-17 20:25:00,
2013-03-17 10:35:00,68.0,66.8,30.05,West,271,1.0,4.0,96,0.00,,,0.01,200,Wunderground v.1.15,2013-03-17 20:35:00,
2013-03-17 10:40:00,68.2,67.0,30.05,West,271,0.0,4.0,96,0.00,,,0.01,230,Wunderground v.1.15,2013-03-17 20:40:00,
2013-03-17 10:45:00,68.4,67.2,30.06,West,271,1.0,4.0,96,0.00,,,0.01,186,Wunderground v.1.15,2013-03-17 20:45:00,
2013-03-17 10:50:00,68.5,67.0,30.06,West,271,2.0,3.0,95,0.00,,,0.01,178,Wunderground v.1.15,2013-03-17 20:50:00,
2013-03-17 10:55:00,68.6,67.1,30.06,West,271,2.0,3.0,95,0.00,,,0.01,134,Wunderground v.1.15,2013-03-17 20:55:00,
2013-03-17 11:00:00,68.6,66.8,30.05,West,271,1.0,4.0,94,0.00,,,0.01,70,Wunderground v.1.15,2013-03-17 21:00:00,
2013-03-17 11:10:00,68.6,66.8,30.05,West,271,2.0,2.0,94,0.00,,,0.01,186,Wunderground v.1.15,2013-03-17 21:10:00,
2013-03-17 11:15:00,68.6,66.8,30.04,West,271,2.0,2.0,94,0.00,,,0.01,267,Wunderground v.1.15,2013-03-17 21:15:00,
2013-03-17 11:20:00,68.8,67.0,30.04,West,271,1.0,1.0,94,0.00,,,0.01,132,Wunderground v.1.15,2013-03-17 21:20:00,
2013-03-17 11:25:00,68.8,67.0,30.04,West,271,1.0,4.0,94,0.00,,,0.01,60,Wunderground v.1.15,2013-03-17 21:25:00,
2013-03-17 11:30:00,68.8,67.0,30.04,SW,217,2.0,3.0,94,0.00,,,0.01,121,Wunderground v.1.15,2013-03-17 21:30:00,
2013-03-17 11:35:00,68.9,67.1,30.03,SW,217,2.0,3.0,94,0.00,,,0.01,188,Wunderground v.1.15,2013-03-17 21:35:00,
2013-03-17 11:45:00,68.9,66.8,30.03,SW,217,1.0,1.0,93,0.00,,,0.01,142,Wunderground v.1.15,2013-03-17 21:45:00,
2013-03-17 11:50:00,68.8,66.4,30.03,SW,217,1.0,1.0,92,0.00,,,0.01,146,Wunderground v.1.15,2013-03-17 21:50:00,
2013-03-17 12:00:00,69.0,66.6,30.02,SW,217,2.0,2.0,92,0.00,,,0.01,139,Wunderground v.1.15,2013-03-17 22:00:00,
2013-03-17 12:10:00,68.9,66.5,30.03,SW,217,3.0,3.0,92,0.00,,,0.01,97,Wunderground v.1.15,2013-03-17 22:10:00,
2013-03-17 12:15:00,68.9,66.5,30.02,SW,217,3.0,3.0,92,0.00,,,0.01,56,Wunderground v.1.15,2013-03-17 22:15:00,
2013-03-17 12:20:00,68.9,66.5,30.03,SW,217,2.0,2.0,92,0.00,,,0.01,79,Wunderground v.1.15,2013-03-17 22:20:00,
2013-03-17 12:25:00,68.9,66.5,30.02,SW,217,2.0,2.0,92,0.00,,,0.01,148,Wunderground v.1.15,2013-03-17 22:25:00,
2013-03-17 12:30:00,68.9,66.5,30.02,SW,215,1.0,4.0,92,0.00,,,0.01,67,Wunderground v.1.15,2013-03-17 22:30:00,
2013-03-17 12:35:00,68.9,66.5,30.02,SW,215,1.0,4.0,92,0.00,,,0.01,74,Wunderground v.1.15,2013-03-17 22:35:00,
2013-03-17 12:40:00,68.9,66.5,30.02,SW,215,1.0,1.0,92,0.00,,,0.01,81,Wunderground v.1.15,2013-03-17 22:40:00,
2013-03-17 12:45:00,68.8,66.4,30.02,SW,215,1.0,1.0,92,0.00,,,0.01,86,Wunderground v.1.15,2013-03-17 22:45:00,
2013-03-17 12:55:00,68.8,66.4,30.00,SW,215,2.0,4.0,92,0.00,,,0.01,207,Wunderground v.1.15,2013-03-17 22:55:00,
2013-03-17 13:00:00,68.8,66.4,30.01,SW,215,3.0,3.0,92,0.00,,,0.01,83,Wunderground v.1.15,2013-03-17 23:00:00,
2013-03-17 13:10:00,68.8,66.1,30.01,SW,215,1.0,1.0,91,0.00,,,0.01,56,Wunderground v.1.15,2013-03-17 23:10:00,
2013-03-17 13:15:00,68.8,66.1,30.01,SW,215,2.0,3.0,91,0.00,,,0.01,77,Wunderground v.1.15,2013-03-17 23:15:00,
2013-03-17 13:20:00,68.7,66.0,30.00,SW,215,1.0,2.0,91,0.00,,,0.01,77,Wunderground v.1.15,2013-03-17 23:20:00,
2013-03-17 13:25:00,68.6,65.9,30.00,SW,215,1.0,2.0,91,0.00,,,0.01,56,Wunderground v.1.15,2013-03-17 23:25:00,
2013-03-17 13:30:00,68.5,65.8,30.00,SW,215,1.0,3.0,91,0.00,,,0.01,40,Wunderground v.1.15,2013-03-17 23:30:00,
2013-03-17 13:35:00,68.4,65.7,30.00,SW,215,2.0,3.0,91,0.00,,,0.01,44,Wunderground v.1.15,2013-03-17 23:35:00,
2013-03-17 13:40:00,68.4,65.7,30.01,SW,215,2.0,2.0,91,0.00,,,0.01,23,Wunderground v.1.15,2013-03-17 23:40:00,
2013-03-17 13:45:00,68.3,65.6,30.00,SW,215,2.0,3.0,91,0.00,,,0.01,26,Wunderground v.1.15,2013-03-17 23:45:00,
2013-03-17 13:55:00,68.2,65.5,30.00,SW,215,0.0,1.0,91,0.00,,,0.01,35,Wunderground v.1.15,2013-03-17 23:55:00,
2013-03-17 14:00:00,68.2,65.8,30.00,SW,215,0.0,0.0,92,0.00,,,0.02,49,Wunderground v.1.15,2013-03-18 00:00:00,
2013-03-17 14:10:00,68.0,65.9,30.00,SW,215,1.0,1.0,93,0.00,,,0.02,69,Wunderground v.1.15,2013-03-18 00:10:00,
2013-03-17 14:15:00,67.9,66.1,29.99,SW,215,0.0,1.0,94,0.00,,,0.02,79,Wunderground v.1.15,2013-03-18 00:15:00,
2013-03-17 14:20:00,67.7,66.2,29.99,SW,215,0.0,0.0,95,0.00,,,0.02,65,Wunderground v.1.15,2013-03-18 00:20:00,
2013-03-17 14:25:00,67.7,66.2,29.99,SW,215,0.0,0.0,95,0.00,,,0.02,81,Wunderground v.1.15,2013-03-18 00:25:00,
2013-03-17 14:30:00,67.6,66.1,29.99,SW,215,1.0,1.0,95,0.00,,,0.02,76,Wunderground v.1.15,2013-03-18 00:30:00,
2013-03-17 14:35:00,67.5,66.0,29.98,SW,215,0.0,1.0,95,0.00,,,0.02,86,Wunderground v.1.15,2013-03-18 00:35:00,
2013-03-17 14:45:00,67.5,66.3,29.98,SW,215,0.0,0.0,96,0.00,,,0.02,65,Wunderground v.1.15,2013-03-18 00:45:00,
2013-03-17 14:50:00,67.4,66.2,29.98,SW,215,1.0,3.0,96,0.00,,,0.02,54,Wunderground v.1.15,2013-03-18 00:50:00,
2013-03-17 14:55:00,67.3,66.1,29.97,SW,215,1.0,3.0,96,0.00,,,0.03,69,Wunderground v.1.15,2013-03-18 00:55:00,
2013-03-17 15:00:00,67.3,66.4,29.97,SW,215,1.0,1.0,97,0.00,,,0.03,95,Wunderground v.1.15,2013-03-18 01:00:00,
2013-03-17 15:10:00,67.2,66.3,29.97,SW,215,0.0,0.0,97,0.00,,,0.03,70,Wunderground v.1.15,2013-03-18 01:10:00,
2013-03-17 15:20:00,67.0,66.1,29.97,SW,215,1.0,3.0,97,0.00,,,0.03,53,Wunderground v.1.15,2013-03-18 01:20:00,
2013-03-17 15:25:00,66.9,66.0,29.97,SW,215,2.0,3.0,97,0.00,,,0.03,76,Wunderground v.1.15,2013-03-18 01:25:00,
2013-03-17 15:30:00,67.1,66.2,29.98,SW,215,3.0,3.0,97,0.00,,,0.03,53,Wunderground v.1.15,2013-03-18 01:30:00,
2013-03-17 15:40:00,67.0,66.1,29.98,SW,215,0.0,0.0,97,0.00,,,0.03,46,Wunderground v.1.15,2013-03-18 01:40:00,
2013-03-17 15:45:00,66.9,66.0,29.98,SW,215,0.0,0.0,97,0.00,,,0.03,53,Wunderground v.1.15,2013-03-18 01:45:00,
2013-03-17 15:50:00,66.9,66.0,29.98,SW,215,0.0,0.0,97,0.00,,,0.03,39,Wunderground v.1.15,2013-03-18 01:50:00,
2013-03-17 15:55:00,67.0,66.4,29.98,SW,215,0.0,0.0,98,0.00,,,0.03,26,Wunderground v.1.15,2013-03-18 01:55:00,
2013-03-17 16:00:00,66.9,66.3,29.99,SW,215,0.0,0.0,98,0.00,,,0.03,19,Wunderground v.1.15,2013-03-18 02:00:00,
2013-03-17 16:10:00,66.9,66.3,29.99,SW,215,0.0,0.0,98,0.00,,,0.03,14,Wunderground v.1.15,2013-03-18 02:10:00,
2013-03-17 16:15:00,66.8,66.2,29.99,SW,215,1.0,1.0,98,0.00,,,0.03,18,Wunderground v.1.15,2013-03-18 02:15:00,
2013-03-17 16:20:00,66.6,66.0,30.00,SW,215,2.0,2.0,98,0.00,,,0.04,26,Wunderground v.1.15,2013-03-18 02:20:00,
2013-03-17 16:25:00,66.3,65.7,30.00,SW,227,2.0,3.0,98,0.00,,,0.04,19,Wunderground v.1.15,2013-03-18 02:25:00,
2013-03-17 16:35:00,65.9,65.6,30.00,SW,229,2.0,3.0,99,0.04,,,0.05,18,Wunderground v.1.15,2013-03-18 02:35:00,
2013-03-17 16:40:00,65.8,65.5,30.00,SW,229,2.0,2.0,99,0.04,,,0.05,14,Wunderground v.1.15,2013-03-18 02:40:00,
2013-03-17 16:45:00,65.7,65.4,30.00,SW,229,1.0,2.0,99,0.04,,,0.05,14,Wunderground v.1.15,2013-03-18 02:45:00,
2013-03-17 16:50:00,65.6,65.6,30.00,SW,229,2.0,2.0,100,0.00,,,0.05,14,Wunderground v.1.15,2013-03-18 02:50:00,
2013-03-17 16:55:00,65.5,65.5,30.00,SW,235,2.0,2.0,100,0.00,,,0.06,14,Wunderground v.1.15,2013-03-18 02:55:00,
2013-03-17 17:00:00,65.4,65.4,30.00,SW,235,2.0,2.0,100,0.00,,,0.06,21,Wunderground v.1.15,2013-03-18 03:00:00,
2013-03-17 17:10:00,65.3,65.3,30.00,SW,235,0.0,0.0,100,0.04,,,0.06,14,Wunderground v.1.15,2013-03-18 03:10:00,
2013-03-17 17:15:00,65.4,65.4,30.00,SW,235,0.0,0.0,100,0.04,,,0.06,14,Wunderground v.1.15,2013-03-18 03:15:00,
2013-03-17 17:20:00,65.3,65.3,30.00,SW,235,0.0,0.0,100,0.04,,,0.06,18,Wunderground v.1.15,2013-03-18 03:20:00,
2013-03-17 17:25:00,65.3,65.3,30.01,SW,235,0.0,0.0,100,0.00,,,0.06,19,Wunderground v.1.15,2013-03-18 03:25:00,
2013-03-17 17:30:00,65.3,65.3,30.01,SW,236,0.0,4.0,100,0.00,,,0.06,25,Wunderground v.1.15,2013-03-18 03:30:00,
2013-03-17 17:40:00,65.1,65.1,30.01,SW,236,3.0,3.0,100,0.00,,,0.06,18,Wunderground v.1.15,2013-03-18 03:40:00,
2013-03-17 17:45:00,65.1,65.1,30.01,SW,236,2.0,3.0,100,0.00,,,0.06,21,Wunderground v.1.15,2013-03-18 03:45:00,
2013-03-17 17:50:00,65.1,65.1,30.02,SW,236,1.0,1.0,100,0.00,,,0.06,23,Wunderground v.1.15,2013-03-18 03:50:00,
2013-03-17 18:00:00,65.2,65.2,30.01,SW,236,0.0,0.0,100,0.00,,,0.06,19,Wunderground v.1.15,2013-03-18 04:00:00,
2013-03-17 18:05:00,65.3,65.3,30.01,SW,236,0.0,1.0,100,0.00,,,0.06,18,Wunderground v.1.15,2013-03-18 04:05:00,
2013-03-17 18:10:00,65.4,65.4,30.01,SW,236,0.0,0.0,100,0.00,,,0.06,16,Wunderground v.1.15,2013-03-18 04:10:00,
2013-03-17 18:15:00,65.3,65.3,30.01,SW,236,1.0,1.0,100,0.00,,,0.06,12,Wunderground v.1.15,2013-03-18 04:15:00,
2013-03-17 18:20:00,65.3,65.3,30.01,SW,236,1.0,1.0,100,0.00,,,0.06,7,Wunderground v.1.15,2013-03-18 04:20:00,
2013-03-17 18:25:00,65.3,65.3,30.02,SW,236,1.0,1.0,100,0.00,,,0.06,0,Wunderground v.1.15,2013-03-18 04:25:00,
2013-03-17 18:35:00,65.1,65.1,30.02,SW,236,1.0,2.0,100,0.00,,,0.06,0,Wunderground v.1.15,2013-03-18 04:35:00,
2013-03-17 18:40:00,65.1,65.1,30.01,SW,236,1.0,1.0,100,0.00,,,0.06,0,Wunderground v.1.15,2013-03-18 04:40:00,
2013-03-17 18:45:00,65.1,65.1,30.02,SW,236,0.0,1.0,100,0.00,,,0.06,0,Wunderground v.1.15,2013-03-18 04:45:00,
2013-03-17 18:50:00,65.1,65.1,30.02,SW,236,0.0,4.0,100,0.00,,,0.06,0,Wunderground v.1.15,2013-03-18 04:50:00,
2013-03-17 19:00:00,64.9,64.9,30.02,SW,236,3.0,3.0,100,0.00,,,0.06,0,Wunderground v.1.15,2013-03-18 05:00:00,
2013-03-17 19:10:00,64.8,64.8,30.03,SW,236,2.0,2.0,100,0.00,,,0.06,0,Wunderground v.1.15,2013-03-18 05:10:00,
2013-03-17 19:15:00,64.7,64.7,30.03,SW,236,2.0,3.0,100,0.00,,,0.06,0,Wunderground v.1.15,2013-03-18 05:15:00,
2013-03-17 19:20:00,64.8,64.8,30.03,SW,236,3.0,3.0,100,0.00,,,0.06,0,Wunderground v.1.15,2013-03-18 05:20:00,
2013-03-17 19:25:00,64.7,64.7,30.03,SW,236,2.0,3.0,100,0.00,,,0.06,0,Wunderground v.1.15,2013-03-18 05:25:00,
2013-03-17 19:30:00,64.7,64.7,30.03,SW,236,1.0,1.0,100,0.00,,,0.06,0,Wunderground v.1.15,2013-03-18 05:30:00,
2013-03-17 19:35:00,64.7,64.7,30.04,SW,236,0.0,1.0,100,0.00,,,0.06,0,Wunderground v.1.15,2013-03-18 05:35:00,
2013-03-17 19:40:00,64.7,64.7,30.04,SW,236,0.0,0.0,100,0.00,,,0.06,0,Wunderground v.1.15,2013-03-18 05:40:00,
2013-03-17 19:45:00,64.7,64.7,30.04,SW,236,0.0,0.0,100,0.00,,,0.06,0,Wunderground v.1.15,2013-03-18 05:45:00,
2013-03-17 19:50:00,64.6,64.6,30.04,SW,236,0.0,0.0,100,0.00,,,0.06,0,Wunderground v.1.15,2013-03-18 05:50:00,
2013-03-17 20:00:00,64.6,64.6,30.04,SW,236,0.0,0.0,100,0.00,,,0.06,0,Wunderground v.1.15,2013-03-18 06:00:00,
2013-03-17 20:10:00,64.6,64.6,30.05,SW,236,0.0,0.0,100,0.00,,,0.06,0,Wunderground v.1.15,2013-03-18 06:10:00,
2013-03-17 20:15:00,64.6,64.6,30.05,SW,236,1.0,2.0,100,0.00,,,0.06,0,Wunderground v.1.15,2013-03-18 06:15:00,
2013-03-17 20:20:00,64.6,64.6,30.05,SW,236,2.0,2.0,100,0.00,,,0.06,0,Wunderground v.1.15,2013-03-18 06:20:00,
2013-03-17 20:25:00,64.6,64.6,30.05,SW,236,1.0,2.0,100,0.00,,,0.06,0,Wunderground v.1.15,2013-03-18 06:25:00,
2013-03-17 20:30:00,64.6,64.6,30.06,SW,236,0.0,0.0,100,0.00,,,0.06,0,Wunderground v.1.15,2013-03-18 06:30:00,
2013-03-17 20:35:00,64.6,64.6,30.06,SW,236,0.0,2.0,100,0.00,,,0.06,0,Wunderground v.1.15,2013-03-18 06:35:00,
2013-03-17 20:40:00,64.6,64.6,30.05,SW,236,1.0,1.0,100,0.00,,,0.06,0,Wunderground v.1.15,2013-03-18 06:40:00,
2013-03-17 20:45:00,64.5,64.5,30.05,SW,236,2.0,2.0,100,0.00,,,0.06,0,Wunderground v.1.15,2013-03-18 06:45:00,
2013-03-17 20:50:00,64.5,64.5,30.06,SW,236,2.0,2.0,100,0.00,,,0.06,0,Wunderground v.1.15,2013-03-18 06:50:00,
2013-03-17 20:55:00,64.4,64.4,30.06,SW,236,2.0,2.0,100,0.00,,,0.06,0,Wunderground v.1.15,2013-03-18 06:55:00,
2013-03-17 21:00:00,64.4,64.4,30.06,SW,236,1.0,1.0,100,0.00,,,0.06,0,Wunderground v.1.15,2013-03-18 07:00:00,
2013-03-17 21:10:00,64.4,64.4,30.06,SW,236,0.0,0.0,100,0.00,,,0.06,0,Wunderground v.1.15,2013-03-18 07:10:00,
2013-03-17 21:15:00,64.4,64.4,30.06,SW,236,0.0,0.0,100,0.00,,,0.06,0,Wunderground v.1.15,2013-03-18 07:15:00,
2013-03-17 21:25:00,64.2,64.2,30.06,SW,236,0.0,0.0,100,0.00,,,0.06,0,Wunderground v.1.15,2013-03-18 07:25:00,
2013-03-17 21:30:00,64.2,64.2,30.06,SW,236,0.0,0.0,100,0.00,,,0.06,0,Wunderground v.1.15,2013-03-18 07:30:00,
2013-03-17 21:35:00,64.2,64.2,30.06,SW,236,0.0,0.0,100,0.00,,,0.06,0,Wunderground v.1.15,2013-03-18 07:35:00,
2013-03-17 21:45:00,64.1,64.1,30.06,SW,236,1.0,2.0,100,0.00,,,0.06,0,Wunderground v.1.15,2013-03-18 07:45:00,
2013-03-17 21:50:00,64.2,64.2,30.06,SW,236,1.0,1.0,100,0.00,,,0.06,0,Wunderground v.1.15,2013-03-18 07:50:00,
2013-03-17 21:55:00,64.2,64.2,30.06,SW,236,1.0,1.0,100,0.00,,,0.06,0,Wunderground v.1.15,2013-03-18 07:55:00,
2013-03-17 22:00:00,64.2,64.2,30.06,SW,236,1.0,1.0,100,0.00,,,0.06,0,Wunderground v.1.15,2013-03-18 08:00:00,
2013-03-17 22:10:00,64.2,64.2,30.07,SW,236,0.0,0.0,100,0.00,,,0.06,0,Wunderground v.1.15,2013-03-18 08:10:00,
2013-03-17 22:15:00,64.2,64.2,30.07,SW,236,0.0,0.0,100,0.00,,,0.06,0,Wunderground v.1.15,2013-03-18 08:15:00,
2013-03-17 22:20:00,64.2,64.2,30.07,SW,236,0.0,0.0,100,0.00,,,0.06,0,Wunderground v.1.15,2013-03-18 08:20:00,
2013-03-17 22:25:00,64.2,64.2,30.07,SW,236,0.0,2.0,100,0.00,,,0.06,0,Wunderground v.1.15,2013-03-18 08:25:00,
2013-03-17 22:30:00,64.2,64.2,30.07,SW,236,1.0,1.0,100,0.00,,,0.06,0,Wunderground v.1.15,2013-03-18 08:30:00,
2013-03-17 22:40:00,64.2,64.2,30.08,SW,236,1.0,1.0,100,0.00,,,0.06,0,Wunderground v.1.15,2013-03-18 08:40:00,
2013-03-17 22:45:00,64.2,64.2,30.07,SW,236,1.0,2.0,100,0.00,,,0.06,0,Wunderground v.1.15,2013-03-18 08:45:00,
2013-03-17 22:50:00,64.3,64.3,30.08,SW,236,1.0,1.0,100,0.00,,,0.06,0,Wunderground v.1.15,2013-03-18 08:50:00,
2013-03-17 22:55:00,64.2,64.2,30.07,SW,236,2.0,2.0,100,0.00,,,0.06,0,Wunderground v.1.15,2013-03-18 08:55:00,
2013-03-17 23:00:00,64.2,64.2,30.06,SW,236,2.0,2.0,100,0.00,,,0.06,0,Wunderground v.1.15,2013-03-18 09:00:00,
2013-03-17 23:10:00,64.2,64.2,30.05,SW,236,2.0,3.0,100,0.00,,,0.06,0,Wunderground v.1.15,2013-03-18 09:10:00,
2013-03-17 23:15:00,64.2,64.2,30.06,SW,236,2.0,3.0,100,0.00,,,0.06,0,Wunderground v.1.15,2013-03-18 09:15:00,
2013-03-17 23:20:00,64.2,64.2,30.06,SW,236,2.0,2.0,100,0.00,,,0.06,0,Wunderground v.1.15,2013-03-18 09:20:00,
2013-03-17 23:25:00,64.2,64.2,30.06,SW,236,2.0,2.0,100,0.00,,,0.06,0,Wunderground v.1.15,2013-03-18 09:25:00,
2013-03-17 23:30:00,64.1,64.1,30.05,SW,236,1.0,1.0,100,0.00,,,0.06,0,Wunderground v.1.15,2013-03-18 09:30:00,
2013-03-17 23:35:00,64.0,64.0,30.05,SW,236,1.0,1.0,100,0.00,,,0.06,0,Wunderground v.1.15,2013-03-18 09:35:00,
2013-03-17 23:40:00,63.9,63.9,30.05,WSW,252,2.0,2.0,100,0.00,,,0.06,0,Wunderground v.1.15,2013-03-18 09:40:00,
2013-03-17 23:50:00,63.7,63.7,30.03,West,263,2.0,3.0,100,0.00,,,0.06,0,Wunderground v.1.15,2013-03-18 09:50:00,